Capitol Logistics 917

Operating for DHL



EETN
Tallinn Airport
Tallinn, EE
EDDK
Cologne Bonn Airport
Cologne, DE

Route Details

Aircraft Information
Group: European Fleet
Types: A30F,A31F,B738
Route Data
Demand: V
Distance: 791nm
Duration: 2h 00m
Recm'd Route: LONSA TODNA P863 DEREX P739 KOLJA M864 PABMI M726 BKD P717 DLE L980 ROBEG N850 LARBU Z189 RUNER KOPAG
Origin Wx: EETN 242050Z 11007KT CAVOK 12/03 Q1013 NOSIG
Dest. Wx: EDDK 242050Z AUTO 16003KT 070V190 CAVOK 10/09 Q1012 NOSIG
Notes:

Financial History
Total Freight: 323,272lbs
Average Load: 46,182lbs/flt
Fuel Used: 147,329lbs
Avg. Fuel Used: 21,047lbs/flt
Fuel Expense: $40,187
Avg. Fuel Expense: $5,741
Avg. Fuel Cost: $0.27/lbs
Total Gross Income: $1,187,055
Pilot Pay: $1,363
Total Expenses: $157,699
Total Revenue: $986,232
Average Revenue: $169,579.26